Soldotna, AK

2:40 PM AKDT on September 24, 2017 (GMT -0800)
Soldotna

Weather History for PASX - July, 2014

Change the Weather History Date:

Monday, July 14, 2014

  Actual Average Record
Temperature  
Mean Temperature 52 °F -  
Max Temperature 62 °F 61 °F 80 °F (2003)
Min Temperature 42 °F 47 °F 36 °F (1986)
Degree Days  
Heating Degree Days 13    
Growing Degree Days 2 (Base 50)    
Moisture  
Dew Point 45 °F    
Average Humidity 71    
Maximum Humidity 93    
Minimum Humidity 48    
Precipitation  
Precipitation 0.00 in - - ()
Sea Level Pressure  
Sea Level Pressure 30.30 in    
Wind  
Wind Speed 4 mph (WSW)    
Max Wind Speed 15 mph    
Max Gust Speed 21 mph    
Visibility 10 miles    
Events      
Averages and records for this station are not official NWS values.
T = Trace of Precipitation, MM = Missing Value Source: NWS Daily Summary

Daily Weather History Graph

Daily Weather History Graph

Search for Another Location

Airport or City:

Trip Planner

Search our weather history database for the weather conditions in past years. The results will help you decide how hot, cold, wet, or windy it might be!

Date:

Astronomy

Jul. 14, 2014 Rise Set
Actual Time 5:01 AM AKDT 11:16 PM AKDT
Civil Twilight 3:36 AM AKDT 12:40 AM AKDT
Nautical Twilight Sun does not set Sun does not set
Astronomical Twilight Sun does not set Sun does not set
Moon 11:35 PM AKDT (7/14) 9:03 AM AKDT (7/14)
Length of Visible Light 21h 03m
Length of Day
18h 15m
Waning Gibbous, 92% of the Moon is Illuminated
Jul 14
Waning Gibbous
Jul 18
Last Quarter
Jul 26
New
Aug 3
First Quarter
Aug 10
Full

Hourly Weather History & Observations

Time (AKDT) Temp. Windchill Dew Point Humidity Pressure Visibility Wind Dir Wind Speed Gust Speed Precip Events Conditions
12:16 AM 48.2 °F - 44.6 °F 87% 30.30 in 10.0 mi Calm Calm - N/A   Partly Cloudy
12:36 AM 48.2 °F - 44.6 °F 87% 30.30 in 10.0 mi Calm Calm - N/A   Clear
12:56 AM 48.2 °F - 44.6 °F 87% 30.30 in 10.0 mi Calm Calm - N/A   Clear
1:16 AM 44.6 °F 43.1 °F 42.8 °F 93% 30.31 in 10.0 mi East 3.5 mph - N/A   Clear
1:36 AM 46.4 °F - 44.6 °F 93% 30.31 in 10.0 mi Calm Calm - N/A   Scattered Clouds
1:56 AM 44.6 °F - 42.8 °F 93% 30.31 in 10.0 mi Calm Calm - N/A   Partly Cloudy
2:16 AM 42.8 °F - 39.2 °F 87% 30.31 in 10.0 mi Calm Calm - N/A   Partly Cloudy
2:36 AM 44.6 °F 43.1 °F 41.0 °F 87% 30.31 in 10.0 mi East 3.5 mph - N/A   Mostly Cloudy
2:56 AM 44.6 °F - 41.0 °F 87% 30.31 in 10.0 mi Calm Calm - N/A   Overcast
3:16 AM 44.6 °F 42.2 °F 42.8 °F 93% 30.31 in 10.0 mi East 4.6 mph - N/A   Overcast
3:36 AM 44.6 °F 43.1 °F 42.8 °F 93% 30.31 in 10.0 mi East 3.5 mph - N/A   Overcast
3:56 AM 46.4 °F 45.2 °F 44.6 °F 93% 30.32 in 10.0 mi ENE 3.5 mph - N/A   Overcast
4:16 AM 46.4 °F 43.5 °F 44.6 °F 93% 30.32 in 10.0 mi East 5.8 mph - N/A   Overcast
4:36 AM 46.4 °F 44.3 °F 44.6 °F 93% 30.32 in 10.0 mi East 4.6 mph - N/A   Overcast
4:56 AM 46.4 °F - 44.6 °F 93% 30.32 in 10.0 mi Calm Calm - N/A   Overcast
5:16 AM 46.4 °F 45.2 °F 44.6 °F 93% 30.32 in 10.0 mi East 3.5 mph - N/A   Overcast
5:36 AM 46.4 °F 45.2 °F 44.6 °F 93% 30.32 in 10.0 mi East 3.5 mph - N/A   Overcast
5:56 AM 46.4 °F - 44.6 °F 93% 30.32 in 10.0 mi Calm Calm - N/A   Overcast
6:16 AM 48.2 °F - 44.6 °F 87% 30.32 in 10.0 mi East 3.5 mph - N/A   Overcast
6:36 AM 46.4 °F - 44.6 °F 93% 30.32 in 10.0 mi Calm Calm - N/A   Overcast
6:56 AM 50.0 °F - 46.4 °F 87% 30.32 in 10.0 mi South 3.5 mph - N/A   Overcast
7:16 AM 48.2 °F - 46.4 °F 93% 30.32 in 10.0 mi Calm Calm - N/A   Mostly Cloudy
7:36 AM 53.6 °F - 48.2 °F 82% 30.32 in 10.0 mi Calm Calm - N/A   Overcast
7:56 AM 53.6 °F - 48.2 °F 82% 30.32 in 10.0 mi SSW 5.8 mph - N/A   Overcast
8:16 AM 53.6 °F - 48.2 °F 82% 30.32 in 10.0 mi SSW 4.6 mph - N/A   Overcast
8:36 AM 53.6 °F - 48.2 °F 82% 30.32 in 10.0 mi Calm Calm - N/A   Overcast
8:56 AM 53.6 °F - 48.2 °F 82% 30.32 in 10.0 mi SW 3.5 mph - N/A   Overcast
9:16 AM 55.4 °F - 48.2 °F 77% 30.32 in 10.0 mi WSW 4.6 mph - N/A   Overcast
9:36 AM 55.4 °F - 48.2 °F 77% 30.31 in 10.0 mi SSW 3.5 mph - N/A   Overcast
9:56 AM 55.4 °F - 48.2 °F 77% 30.32 in 10.0 mi WSW 5.8 mph - N/A   Overcast
10:16 AM 57.2 °F - 48.2 °F 72% 30.32 in 10.0 mi WSW 8.1 mph - N/A   Mostly Cloudy
10:36 AM 57.2 °F - 46.4 °F 67% 30.32 in 10.0 mi West 8.1 mph - N/A   Overcast
10:56 AM 57.2 °F - 46.4 °F 67% 30.31 in 10.0 mi SW 4.6 mph - N/A   Mostly Cloudy
11:16 AM 57.2 °F - 46.4 °F 67% 30.31 in 10.0 mi West 9.2 mph - N/A   Mostly Cloudy
11:36 AM 57.2 °F - 46.4 °F 67% 30.31 in 10.0 mi WSW 9.2 mph - N/A   Overcast
11:56 AM 59.0 °F - 46.4 °F 63% 30.31 in 10.0 mi WSW 6.9 mph - N/A   Mostly Cloudy
12:16 PM 59.0 °F - 44.6 °F 59% 30.31 in 10.0 mi WSW 4.6 mph - N/A   Mostly Cloudy
12:36 PM 59.0 °F - 44.6 °F 59% 30.31 in 10.0 mi SW 5.8 mph - N/A   Overcast
12:56 PM 60.8 °F - 44.6 °F 55% 30.31 in 10.0 mi WSW 6.9 mph - N/A   Overcast
1:16 PM 60.8 °F - 44.6 °F 55% 30.31 in 10.0 mi West 12.7 mph 16.1 mph N/A   Mostly Cloudy
1:36 PM 60.8 °F - 46.4 °F 59% 30.31 in 10.0 mi West 12.7 mph 16.1 mph N/A   Mostly Cloudy
1:56 PM 60.8 °F - 46.4 °F 59% 30.31 in 10.0 mi WSW 12.7 mph 17.3 mph N/A   Mostly Cloudy
2:16 PM 60.8 °F - 44.6 °F 55% 30.30 in 10.0 mi WSW 10.4 mph 17.3 mph N/A   Mostly Cloudy
2:36 PM 60.8 °F - 44.6 °F 55% 30.31 in 10.0 mi West 12.7 mph 17.3 mph N/A   Partly Cloudy
2:56 PM 60.8 °F - 44.6 °F 55% 30.30 in 10.0 mi West 6.9 mph 16.1 mph N/A   Clear
3:16 PM 62.6 °F - 46.4 °F 55% 30.30 in 10.0 mi WSW 10.4 mph 18.4 mph N/A   Clear
3:36 PM 62.6 °F - 46.4 °F 55% 30.30 in 10.0 mi WSW 11.5 mph 17.3 mph N/A   Clear
3:56 PM 62.6 °F - 44.6 °F 52% 30.30 in 10.0 mi West 12.7 mph 17.3 mph N/A   Clear
4:16 PM 62.6 °F - 44.6 °F 52% 30.30 in 10.0 mi West 11.5 mph 20.7 mph N/A   Clear
4:36 PM 62.6 °F - 44.6 °F 52% 30.30 in 10.0 mi West 15.0 mph 18.4 mph N/A   Clear
4:56 PM 62.6 °F - 42.8 °F 48% 30.29 in 10.0 mi West 8.1 mph - N/A   Clear
5:16 PM 62.6 °F - 42.8 °F 48% 30.29 in 10.0 mi WSW 12.7 mph 17.3 mph N/A   Clear
5:36 PM 62.6 °F - 44.6 °F 52% 30.29 in 10.0 mi West 11.5 mph - N/A   Clear
5:56 PM 62.6 °F - 44.6 °F 52% 30.28 in 10.0 mi WSW 9.2 mph - N/A   Clear
6:16 PM 62.6 °F - 44.6 °F 52% 30.28 in 10.0 mi West 15.0 mph - N/A   Clear
6:36 PM 62.6 °F - 44.6 °F 52% 30.27 in 10.0 mi West 12.7 mph - N/A   Clear
6:56 PM 62.6 °F - 44.6 °F 52% 30.26 in 10.0 mi WSW 10.4 mph - N/A   Clear
7:16 PM 62.6 °F - 44.6 °F 52% 30.26 in 10.0 mi West 12.7 mph 16.1 mph N/A   Clear
7:36 PM 60.8 °F - 44.6 °F 55% 30.26 in 10.0 mi WSW 11.5 mph - N/A   Clear
7:56 PM 60.8 °F - 44.6 °F 55% 30.26 in 10.0 mi West 11.5 mph - N/A   Clear
8:16 PM 60.8 °F - 44.6 °F 55% 30.26 in 10.0 mi WSW 10.4 mph - N/A   Clear
8:36 PM 60.8 °F - 44.6 °F 55% 30.25 in 10.0 mi WSW 9.2 mph - N/A   Clear
8:56 PM 59.0 °F - 44.6 °F 59% 30.25 in 10.0 mi SW 10.4 mph - N/A   Clear
9:16 PM 57.2 °F - 44.6 °F 63% 30.25 in 10.0 mi WSW 9.2 mph - N/A   Clear
9:36 PM 57.2 °F - 44.6 °F 63% 30.25 in 10.0 mi WSW 9.2 mph - N/A   Clear
9:56 PM 57.2 °F - 44.6 °F 63% 30.25 in 10.0 mi WSW 4.6 mph - N/A   Clear
10:16 PM 55.4 °F - 44.6 °F 67% 30.25 in 10.0 mi Calm Calm - N/A   Clear
10:36 PM 55.4 °F - 46.4 °F 72% 30.25 in 10.0 mi West 3.5 mph - N/A   Clear
10:56 PM 55.4 °F - 44.6 °F 67% 30.26 in 10.0 mi Calm Calm - N/A   Clear
11:16 PM 53.6 °F - 44.6 °F 72% 30.26 in 10.0 mi South 3.5 mph - N/A   Clear
11:36 PM 53.6 °F - 44.6 °F 72% 30.26 in 10.0 mi Calm Calm - N/A   Clear
11:56 PM 53.6 °F - 44.6 °F 72% 30.26 in 10.0 mi SW 4.6 mph - N/A   Clear